Wind_Speed
17 16 15 14 14 13 12 12 11 11 11 9 8 7 6 5 7 8 9 9 11 13 14 15 15 15 13 12 10 10 9 9 8 7 6 4 3 2 3 6 8 8 9 9
19 18 18 17 15 15 14 13 14 14 13 12 11 9 8 7 7 8 9 10 11 13 14 14 14 15 14 11 10 9 9 8 7 6 5 3 3 3 4 6 8 9 9 9
21 20 20 18 17 16 15 15 16 16 15 15 13 10 9 9 9 9 10 11 12 12 14 14 14 14 12 10 9 9 9 8 7 6 4 3 3 4 5 6 7 9 10 10
24 23 22 20 19 18 17 18 18 18 17 17 15 12 10 10 11 11 11 12 12 12 13 14 13 13 11 10 9 10 9 8 6 6 5 4 4 4 5 6 7 9 10 10
25 25 23 22 21 20 19 20 20 19 18 18 17 15 13 12 12 12 12 11 10 11 12 14 14 13 12 11 10 10 9 7 6 5 5 5 4 4 4 5 7 9 10 11
28 27 24 23 23 21 21 21 21 20 19 19 18 17 14 13 12 13 12 11 10 11 13 15 14 12 12 11 10 10 8 7 6 6 6 5 5 5 6 6 7 8 10 12
29 27 25 24 24 23 22 22 22 21 21 20 18 17 14 13 12 12 12 11 10 11 13 14 13 11 11 11 10 9 8 7 7 7 7 6 6 6 7 6 7 8 9 11
30 28 27 26 25 24 24 23 23 23 22 20 19 18 14 13 11 11 11 11 10 11 13 12 12 12 11 10 9 9 8 7 7 7 7 6 6 6 6 6 7 8 10 11
31 29 28 28 27 27 25 25 24 25 23 22 20 18 15 13 11 10 10 9 9 10 10 11 12 12 11 10 10 9 9 8 7 7 7 6 6 6 6 6 7 9 10 11
33 31 30 30 30 29 27 26 26 25 25 23 21 18 15 14 13 11 10 10 9 10 11 11 12 12 11 10 9 10 9 9 8 8 7 6 6 6 6 6 7 8 9 10
35 34 32 32 32 30 29 28 27 26 25 23 20 17 15 15 14 13 12 11 11 11 11 11 12 12 11 11 10 10 10 9 9 8 8 8 7 7 6 6 6 7 9 10
36 36 34 33 33 32 31 29 28 27 25 23 20 16 15 16 15 14 13 12 12 12 11 11 13 13 12 11 11 11 10 9 9 9 9 8 8 7 7 7 7 7 8 8
36 37 36 35 34 33 31 30 28 27 26 24 21 16 16 17 17 15 14 13 13 12 12 12 13 13 12 12 12 11 10 10 9 9 9 9 9 9 8 8 8 8 9 10
36 36 35 33 31 31 31 30 29 28 26 24 21 18 17 17 18 17 16 15 14 13 13 13 12 13 13 12 12 11 11 10 10 10 10 9 10 10 9 9 10 10 11 11
34 34 33 32 32 32 32 31 30 28 26 24 21 19 17 17 17 17 16 15 14 13 13 13 13 14 13 12 12 12 11 11 11 11 11 11 11 12 12 12 12 12 13 14
33 33 31 31 31 33 33 33 32 30 28 26 23 20 18 18 17 17 16 16 16 15 14 14 14 14 14 12 12 13 13 13 13 12 12 13 13 14 14 14 14 15 15 15
33 32 31 29 29 32 34 33 33 31 29 27 24 21 20 18 18 17 17 17 17 16 16 16 16 16 15 14 13 14 14 14 14 14 15 15 15 16 16 15 16 17 17 17
34 32 31 30 29 32 31 31 32 32 30 28 26 24 22 20 19 18 18 17 17 18 17 17 17 17 16 16 15 15 15 15 16 16 16 16 16 17 18 17 18 18 19 19
36 34 33 32 32 31 31 31 31 31 30 29 27 26 24 22 21 20 19 18 19 18 18 18 18 18 17 17 17 17 17 17 17 17 17 17 18 18 18 19 19 20 20 20
39 38 36 35 34 33 31 31 31 31 31 29 28 27 26 24 22 20 20 20 20 20 20 20 20 19 19 19 19 19 20 19 19 19 19 19 19 19 19 20 20 20 21 21
42 41 40 39 38 36 33 32 32 32 31 30 29 28 27 25 24 22 22 23 23 22 22 23 22 21 21 21 21 21 21 20 20 19 19 20 20 20 20 21 22 22 22 22
44 44 44 42 40 39 35 33 33 33 32 32 30 29 28 27 26 25 24 24 24 24 24 24 23 23 23 22 22 20 20 20 20 20 20 20 21 21 22 23 23 23 24 24
45 45 45 44 42 39 36 35 34 33 33 32 32 31 30 29 28 27 27 27 26 25 25 26 25 25 23 23 21 20 20 21 21 22 21 21 22 23 24 24 24 25 25 25
45 45 45 44 43 40 37 35 34 32 32 32 32 32 31 30 30 30 29 28 28 27 26 25 25 25 24 23 22 21 21 21 21 22 22 23 24 24 24 25 25 26 26 26
44 44 44 44 43 40 38 36 34 33 32 32 32 32 31 30 30 29 29 29 29 27 25 25 26 25 25 25 24 22 21 21 21 22 22 23 23 24 24 25 25 25 26 26
43 43 43 42 42 40 38 37 36 35 34 33 32 31 30 30 30 29 28 28 27 27 26 26 25 25 24 24 23 22 21 21 22 22 23 23 24 24 25 25 25 25 26 26
Wind_Direction
226 226 228 231 235 239 242 248 257 267 274 280 290 302 313 332 340 345 347 351 352 353 351 348 348 348 346 344 343 344 343 345 340 335 334 322 292 266 235 232 231 227 219 217
227 226 229 232 236 241 244 247 254 264 270 275 284 295 304 320 330 337 337 339 341 346 349 345 346 344 345 347 347 345 342 344 343 334 334 320 295 276 263 253 238 230 226 222
227 226 230 233 236 241 245 246 251 258 268 276 283 290 298 311 319 323 327 331 333 339 346 348 347 344 342 343 342 342 338 335 333 329 331 321 298 286 265 251 240 232 228 226
229 229 231 234 238 241 243 246 250 257 264 271 283 288 294 302 310 312 317 321 325 331 338 340 342 342 340 337 336 337 337 333 328 319 310 309 298 286 266 252 245 234 232 232
229 231 232 235 239 241 243 248 251 255 261 267 276 282 289 292 300 304 309 314 321 329 333 339 340 338 335 332 332 334 334 332 328 329 317 310 304 297 281 254 241 238 236 237
229 231 233 234 237 241 244 249 253 256 261 265 272 278 284 286 289 294 302 310 319 328 333 336 332 332 332 331 332 332 332 330 329 329 320 313 307 298 282 258 244 242 243 239
230 232 233 235 238 241 244 248 252 256 261 265 271 276 281 284 288 292 297 305 313 324 332 334 332 330 335 334 336 335 335 331 327 326 322 311 310 297 279 261 251 245 247 243
230 231 233 235 238 242 244 247 251 256 261 265 268 272 277 281 284 290 298 304 310 319 328 334 337 336 334 334 334 336 336 334 330 327 329 323 313 300 287 271 260 253 251 247
230 231 232 234 235 238 242 245 250 254 259 262 265 268 270 272 277 284 297 304 312 323 332 335 338 337 334 331 330 330 330 330 331 328 325 320 317 304 291 277 264 256 254 252
229 229 229 232 234 237 240 244 248 253 258 261 264 266 265 266 269 277 286 299 305 316 327 333 334 336 331 328 324 324 323 324 323 323 322 318 314 306 290 281 271 257 256 257
229 229 229 232 235 238 241 244 248 251 256 260 263 262 261 262 265 271 280 291 299 308 318 325 328 332 326 322 321 320 321 322 321 319 318 315 310 307 300 291 284 273 266 263
230 231 229 231 234 236 238 241 245 249 253 258 262 259 254 257 262 270 280 284 293 306 312 313 318 322 321 319 317 315 316 321 323 322 321 316 317 312 304 295 289 281 275 271
230 232 231 230 233 236 238 241 244 249 252 256 259 259 251 254 260 267 276 283 290 298 303 308 313 317 317 315 314 310 310 314 317 316 315 314 316 316 307 301 291 285 282 278
231 233 233 233 235 236 237 239 242 246 250 255 259 260 254 256 260 263 269 276 283 290 296 302 307 311 310 309 308 306 304 305 307 306 305 305 306 309 309 305 300 289 283 281
232 233 233 231 229 231 233 234 238 243 248 253 257 259 259 260 260 262 265 270 277 285 289 296 307 312 307 302 300 299 299 299 299 298 296 296 297 299 301 301 299 294 287 283
231 232 231 230 228 230 231 233 237 242 247 252 256 258 258 259 260 261 263 267 275 282 286 290 302 308 302 298 297 297 295 296 294 292 293 292 292 293 294 295 293 293 291 288
232 232 231 229 228 229 231 233 236 241 246 251 255 258 259 261 262 262 264 268 272 279 285 291 297 306 301 294 294 294 293 293 292 290 291 291 289 289 289 290 290 289 288 286
231 233 233 233 230 232 233 234 238 242 246 250 254 258 261 262 262 262 265 270 273 280 285 291 294 298 298 299 296 295 291 288 288 288 289 289 289 289 288 288 289 290 290 287
232 233 234 235 235 237 236 235 238 242 245 250 254 258 261 261 262 263 268 273 276 282 287 290 290 292 296 297 300 298 292 287 283 283 286 288 288 288 288 287 289 290 290 289
232 233 235 237 239 239 240 241 242 243 246 249 253 256 260 262 262 264 267 272 276 280 285 288 290 292 293 292 295 297 293 288 281 282 285 285 286 286 287 288 289 291 290 288
231 234 236 239 241 242 242 244 245 246 247 248 251 254 258 260 262 263 266 271 276 281 283 286 290 291 293 291 290 291 290 286 282 282 286 284 284 285 286 288 289 290 289 288
231 233 236 240 242 243 245 248 248 249 248 249 250 253 256 257 259 262 267 271 276 279 281 283 287 289 290 291 288 286 284 283 283 282 282 283 283 285 287 288 289 290 291 288
231 233 236 238 241 244 246 248 250 249 250 250 251 252 254 255 258 261 266 269 272 275 278 280 283 284 286 289 288 282 282 282 284 282 280 281 283 284 286 287 288 289 290 289
232 233 236 238 240 243 245 247 250 250 251 250 251 252 254 255 258 261 265 268 270 272 277 279 282 282 284 287 285 285 284 282 282 281 281 281 283 284 284 285 287 288 289 288
234 234 236 238 240 241 243 245 248 250 251 251 252 252 253 256 258 260 263 268 270 269 273 279 283 284 285 284 282 282 282 281 280 282 284 284 285 285 285 286 287 288 288 287
234 235 235 236 238 240 241 243 246 248 249 251 251 252 253 255 257 259 261 265 269 271 272 278 282 282 282 280 278 279 279 281 282 283 284 286 286 285 286 286 286 287 287 287
Height
5899 5903 5904 5905 5906 5907 5909 5910 5910 5911 5912 5912 5912 5912 5912 5912 5911 5911 5910 5909 5907 5906 5904 5902 5900 5897 5895 5892 5891 5890 5889 5887 5885 5885 5884 5884 5884 5884 5885 5886 5887 5888 5890 5891
5898 5900 5901 5902 5904 5906 5907 5908 5909 5909 5910 5911 5911 5911 5911 5911 5911 5910 5909 5908 5906 5905 5903 5901 5899 5897 5894 5892 5891 5889 5888 5886 5885 5884 5884 5883 5883 5884 5884 5885 5886 5887 5888 5890
5894 5897 5897 5900 5902 5904 5905 5907 5907 5907 5908 5908 5910 5910 5910 5910 5910 5909 5908 5907 5905 5904 5902 5900 5898 5896 5893 5891 5890 5889 5887 5886 5885 5884 5883 5882 5882 5883 5883 5884 5884 5885 5887 5888
5889 5892 5894 5897 5899 5901 5903 5903 5904 5905 5906 5906 5908 5908 5909 5908 5908 5908 5907 5906 5904 5902 5901 5899 5897 5895 5892 5891 5889 5888 5886 5885 5884 5882 5882 5881 5881 5882 5882 5883 5883 5884 5886 5887
5885 5888 5891 5894 5896 5898 5899 5900 5902 5903 5904 5905 5905 5906 5908 5906 5906 5906 5905 5904 5902 5901 5899 5898 5895 5893 5891 5890 5888 5887 5885 5884 5883 5882 5881 5881 5880 5881 5881 5881 5882 5883 5884 5885
5880 5883 5887 5890 5892 5894 5896 5897 5899 5900 5901 5903 5903 5904 5905 5904 5904 5903 5903 5902 5900 5899 5897 5895 5894 5892 5890 5888 5887 5885 5884 5883 5882 5881 5880 5880 5879 5879 5880 5880 5881 5881 5882 5883
5876 5879 5883 5886 5888 5890 5892 5894 5896 5897 5898 5900 5900 5901 5903 5902 5902 5901 5901 5900 5898 5897 5895 5893 5892 5890 5889 5887 5886 5884 5883 5882 5881 5881 5879 5878 5878 5878 5878 5878 5879 5879 5880 5881
5871 5875 5879 5881 5884 5886 5888 5890 5893 5894 5895 5896 5897 5898 5900 5900 5899 5899 5898 5898 5897 5895 5893 5892 5891 5889 5888 5887 5885 5884 5883 5882 5881 5879 5878 5877 5877 5876 5876 5876 5876 5877 5877 5878
5866 5871 5874 5876 5879 5881 5883 5886 5888 5890 5891 5892 5894 5896 5897 5897 5897 5897 5897 5896 5895 5894 5892 5891 5889 5888 5887 5886 5885 5883 5882 5881 5880 5879 5877 5876 5876 5875 5875 5875 5874 5874 5875 5876
5859 5864 5868 5870 5873 5876 5879 5882 5884 5885 5887 5888 5891 5892 5894 5894 5895 5895 5895 5894 5894 5892 5891 5890 5888 5887 5886 5885 5884 5883 5881 5880 5879 5878 5876 5875 5875 5874 5874 5873 5873 5873 5873 5874
5853 5858 5862 5865 5868 5872 5875 5877 5879 5881 5883 5885 5887 5891 5891 5892 5892 5893 5893 5892 5891 5890 5889 5888 5887 5886 5884 5883 5882 5881 5880 5879 5877 5876 5875 5875 5874 5873 5872 5872 5872 5871 5871 5872
5846 5851 5855 5860 5863 5865 5868 5872 5875 5877 5879 5881 5883 5889 5887 5888 5889 5889 5890 5889 5889 5888 5887 5886 5885 5884 5882 5881 5880 5879 5878 5877 5876 5875 5874 5873 5873 5872 5871 5870 5870 5870 5870 5870
5840 5844 5849 5853 5858 5861 5863 5867 5870 5873 5875 5876 5879 5885 5883 5884 5885 5886 5886 5886 5886 5886 5885 5884 5883 5881 5880 5879 5878 5877 5876 5875 5874 5873 5873 5872 5871 5870 5870 5869 5868 5868 5868 5867
5834 5838 5844 5850 5854 5856 5859 5863 5865 5868 5870 5872 5875 5878 5879 5880 5881 5882 5883 5883 5883 5883 5882 5881 5880 5879 5878 5877 5876 5875 5874 5873 5872 5872 5871 5870 5870 5869 5868 5867 5866 5865 5865 5865
5828 5833 5838 5843 5847 5849 5853 5857 5860 5863 5865 5868 5871 5873 5875 5876 5877 5878 5879 5880 5880 5880 5879 5878 5878 5877 5875 5874 5873 5873 5872 5871 5870 5869 5869 5868 5867 5867 5866 5865 5864 5863 5862 5862
5822 5827 5832 5836 5841 5844 5847 5851 5854 5857 5860 5863 5866 5869 5871 5872 5873 5874 5875 5876 5877 5877 5876 5876 5875 5874 5872 5871 5871 5870 5869 5868 5867 5867 5866 5865 5865 5864 5863 5862 5861 5860 5859 5858
5816 5822 5826 5831 5835 5837 5841 5845 5849 5852 5855 5858 5861 5865 5866 5868 5869 5870 5871 5872 5873 5873 5873 5872 5872 5871 5869 5868 5867 5866 5866 5865 5864 5864 5863 5862 5861 5860 5859 5859 5858 5857 5855 5854
5811 5815 5820 5824 5829 5831 5838 5840 5843 5847 5850 5853 5856 5859 5861 5863 5864 5866 5867 5868 5869 5869 5869 5869 5868 5867 5865 5864 5863 5862 5861 5861 5860 5859 5859 5858 5857 5856 5855 5854 5853 5852 5851 5850
5805 5809 5814 5818 5822 5826 5831 5834 5838 5841 5844 5848 5851 5853 5856 5858 5859 5861 5863 5863 5864 5864 5864 5864 5863 5862 5861 5860 5859 5858 5857 5856 5855 5855 5854 5853 5853 5852 5851 5850 5849 5847 5846 5845
5798 5803 5807 5811 5815 5819 5825 5829 5832 5836 5838 5842 5845 5847 5850 5852 5854 5857 5858 5858 5859 5859 5859 5858 5857 5857 5856 5855 5854 5853 5852 5851 5850 5850 5849 5848 5847 5847 5846 5845 5843 5842 5841 5840
5790 5795 5799 5804 5808 5812 5818 5821 5826 5830 5833 5836 5838 5841 5843 5846 5849 5851 5852 5852 5853 5853 5853 5852 5852 5851 5850 5849 5848 5847 5846 5846 5845 5845 5844 5843 5842 5841 5840 5839 5838 5837 5835 5834
5782 5787 5792 5796 5801 5807 5811 5815 5819 5822 5826 5829 5831 5834 5837 5839 5842 5844 5845 5846 5847 5847 5847 5846 5846 5846 5845 5843 5842 5841 5840 5840 5840 5839 5838 5837 5836 5835 5834 5833 5832 5830 5829 5827
5773 5779 5784 5789 5795 5799 5804 5807 5811 5815 5818 5822 5825 5827 5830 5833 5835 5837 5839 5840 5840 5840 5841 5841 5840 5840 5839 5837 5836 5835 5835 5834 5834 5833 5832 5831 5830 5829 5828 5826 5825 5824 5822 5821
5764 5770 5775 5781 5786 5791 5796 5800 5803 5807 5811 5814 5817 5820 5823 5826 5828 5830 5832 5833 5833 5834 5834 5834 5833 5833 5832 5831 5830 5829 5828 5828 5828 5827 5826 5825 5824 5823 5821 5820 5819 5817 5816 5814
5756 5761 5766 5772 5778 5783 5788 5792 5796 5800 5803 5806 5809 5813 5816 5818 5820 5822 5824 5825 5826 5826 5827 5827 5826 5826 5825 5824 5824 5823 5822 5821 5822 5821 5820 5819 5817 5816 5815 5814 5812 5810 5809 5807
5748 5753 5759 5764 5769 5775 5779 5784 5788 5792 5795 5799 5802 5805 5808 5810 5813 5815 5816 5817 5818 5819 5819 5819 5819 5818 5818 5817 5817 5816 5816 5816 5816 5815 5814 5812 5811 5810 5808 5807 5805 5804 5802 5801